Location: Clatteringshaws Loch
(55.0508°N, 4.2860°W)
Time: 23:14:34
(UTC+01:00)

Amateur Radio Satellites - All Passes

Search period start: 16 October 2017 22:44
Search period end: 17 October 2017 22:44
Location: Clatteringshaws Loch, 55.0508°N, 4.2860°W

Satellite Date Start Highest point End Downlink Frequencies (MHz)
Time Altitude Azimuth
Max Valier Satellite 16 Oct 22:48:07 22:51:29 31° 264° (W) 22:54:51 145.860
EO-88 16 Oct 22:48:23 22:51:50 38° 262° (W) 22:55:18 145.990 - 145.960
TIGRISAT 16 Oct 22:52:46 22:57:12 39° 96° (E) 23:01:31 435.000
YUBILEINY 16 Oct 23:01:55 23:09:49 40° 276° (W) 23:17:45 435.215
BEESAT 3 16 Oct 23:03:29 23:06:31 21° 242° (WSW) 23:09:30 437.485
AO-85 16 Oct 23:03:35 23:07:55 66° 228° (SW) 23:12:37 145.980
STRAND 1 16 Oct 23:13:22 23:16:37 17° 312° (NW) 23:19:51 437.568
PRISM 16 Oct 23:28:04 23:31:58 39° 99° (E) 23:35:50 437.425
AIST 2D 16 Oct 23:33:31 23:35:19 13° 88° (E) 23:37:08 435.315
O/OREOS (USA 219) 16 Oct 23:48:52 23:53:14 43° 311° (NW) 23:57:40 437.305
LO-87 16 Oct 23:52:02 23:55:32 47° 260° (W) 23:59:05 145.935 - 145.965
DX 1 16 Oct 23:53:53 23:55:52 13° 49° (NE) 23:57:52 434.975-435.025
RS-15 16 Oct 23:55:29 00:01:07 15° 90° (E) 00:06:43 29.354- 29.394
SPROUT 16 Oct 23:55:56 23:59:56 40° 65° (ENE) 00:03:59 437.525
ESTCUBE 1 16 Oct 23:57:56 00:02:25 66° 257° (WSW) 00:06:56 437.505/2401.250
VELOX 1 17 Oct 00:07:07 00:11:13 39° 64° (ENE) 00:15:20 145.980
50 SAT 17 Oct 00:07:08 00:08:18 11° 55° (NE) 00:09:28 437.505
UNISAT 6 17 Oct 00:13:23 00:17:51 45° 294° (WNW) 00:22:15 437.425
BEESAT 2 17 Oct 00:14:08 00:16:28 15° 246° (WSW) 00:18:45 435.950
FO-29 17 Oct 00:18:28 00:23:52 31° 305° (NW) 00:29:49 435.910
UKube-1 17 Oct 00:26:20 00:28:59 16° 52° (NE) 00:31:39 .
EO-79 17 Oct 00:28:06 00:31:30 22° 91° (E) 00:34:51 145.935-145.965
TIGRISAT 17 Oct 00:29:34 00:33:52 37° 297° (WNW) 00:38:06 435.000
POLYITAN 1 17 Oct 00:31:30 00:35:00 24° 92° (E) 00:38:28 437.675
AO-85 17 Oct 00:45:21 00:47:40 14° 247° (WSW) 00:50:04 145.980
QB50P2 17 Oct 00:51:09 00:55:10 37° 97° (E) 00:59:09 145.880/145.840
NANOSAT C BR1 17 Oct 00:58:57 01:02:56 36° 97° (E) 01:06:53 145.865
PRISM 17 Oct 01:03:33 01:07:09 30° 298° (WNW) 01:10:45 437.425
AIST 2D 17 Oct 01:05:27 01:08:57 67° 287° (WNW) 01:12:23 435.315
DUCHIFAT 1 17 Oct 01:12:09 01:16:14 42° 98° (E) 01:20:17 145.980
DX 1 17 Oct 01:26:59 01:31:16 63° 69° (ENE) 01:35:35 434.975-435.025
ITUPSAT 1 17 Oct 01:27:37 01:29:56 13° 46° (NE) 01:32:15 437.325
Gurwin Techsat 1B 17 Oct 01:27:55 01:28:22 10° 79° (E) 01:28:48 435.225
Oscar 19 17 Oct 01:29:00 01:31:41 14° 84° (E) 01:34:20 437.125/150
O/OREOS (USA 219) 17 Oct 01:31:15 01:33:53 15° 335° (NNW) 01:36:30 437.305
SPROUT 17 Oct 01:32:06 01:35:56 31° 265° (W) 01:39:47 437.525
50 SAT 17 Oct 01:36:49 01:40:06 89° 255° (WSW) 01:43:24 437.505
BUGSAT 1 17 Oct 01:37:21 01:40:53 25° 93° (E) 01:44:23 437.445
MOZHAYETS 4 17 Oct 01:38:37 01:41:15 15° 50° (NE) 01:43:52
ESTCUBE 1 17 Oct 01:38:59 01:40:08 11° 277° (W) 01:41:15 437.505/2401.250
VELOX 1 17 Oct 01:43:47 01:47:45 33° 264° (W) 01:51:44 145.980
BEESAT 17 Oct 01:45:04 01:48:10 17° 51° (NE) 01:51:17 436.000
UNISAT 6 17 Oct 01:52:24 01:53:29 11° 315° (NW) 01:54:34 437.425
RS-15 17 Oct 01:58:47 02:10:20 50° 115° (ESE) 02:21:47 29.354- 29.394
UKube-1 17 Oct 02:00:05 02:04:23 84° 73° (ENE) 02:08:44 .
EO-79 17 Oct 02:03:22 02:07:35 56° 291° (WNW) 02:11:46 145.935-145.965
FO-29 17 Oct 02:06:34 02:07:14 10° 327° (NNW) 02:07:54 435.910
POLYITAN 1 17 Oct 02:06:52 02:11:04 53° 292° (WNW) 02:15:13 437.675
QB50P2 17 Oct 02:27:03 02:30:56 34° 297° (WNW) 02:34:47 145.880/145.840
NANOSAT C BR1 17 Oct 02:34:45 02:38:38 34° 296° (WNW) 02:42:28 145.865
DUCHIFAT 1 17 Oct 02:48:04 02:51:47 30° 298° (WNW) 02:55:29 145.980
ITUPSAT 1 17 Oct 03:02:07 03:06:49 56° 67° (ENE) 03:11:34 437.325
M-CUBED/EXP-1 PRIME 17 Oct 03:02:55 03:06:10 43° 107° (ESE) 03:09:35 437.505
Gurwin Techsat 1B 17 Oct 03:04:21 03:09:36 53° 101° (E) 03:14:47 435.225
DX 1 17 Oct 03:04:37 03:07:52 20° 269° (W) 03:11:08 434.975-435.025
Oscar 19 17 Oct 03:06:47 03:11:57 73° 105° (ESE) 03:17:04 437.125/150
BUGSAT 1 17 Oct 03:12:21 03:16:29 50° 292° (WNW) 03:20:34 437.445
MOZHAYETS 4 17 Oct 03:13:01 03:17:39 70° 71° (ENE) 03:22:17
CUBESAT XI-V 17 Oct 03:14:06 03:17:47 24° 58° (ENE) 03:21:29 437.345
BEESAT 17 Oct 03:20:27 03:25:15 78° 71° (ENE) 03:30:05 436.000
ITAMSAT 1 17 Oct 03:31:47 03:34:10 13° 83° (E) 03:36:33 435.822/435.867
AO-7 17 Oct 03:32:26 03:38:47 23° 87° (E) 03:45:04 .
KKS-1 17 Oct 03:36:15 03:38:56 16° 51° (NE) 03:41:38 437.445
UKube-1 17 Oct 03:38:27 03:41:01 15° 272° (W) 03:43:35 .
EO-79 17 Oct 03:41:00 03:42:29 12° 311° (NW) 03:43:57 145.935-145.965
POLYITAN 1 17 Oct 03:44:45 03:45:57 11° 312° (NW) 03:47:08 437.675
RS-15 17 Oct 04:09:57 04:22:23 78° 323° (NW) 04:34:36 29.354- 29.394
STARS 17 Oct 04:20:38 04:23:34 18° 53° (NE) 04:26:31 437.465
M-CUBED/EXP-1 PRIME 17 Oct 04:37:48 04:40:29 22° 305° (NW) 04:43:15 437.505
ITUPSAT 1 17 Oct 04:40:54 04:44:58 27° 267° (W) 04:49:04 437.325
Gurwin Techsat 1B 17 Oct 04:44:38 04:49:23 34° 301° (WNW) 04:54:07 435.225
Oscar 19 17 Oct 04:46:43 04:50:51 25° 305° (NW) 04:54:57 437.125/150
BUGSAT 1 17 Oct 04:50:05 04:50:54 10° 313° (NW) 04:51:43 437.445
CUBESAT XI-V 17 Oct 04:50:13 04:54:50 64° 258° (WSW) 04:59:27 437.345
MOZHAYETS 4 17 Oct 04:51:49 04:55:17 20° 271° (W) 04:58:45
O/OREOS (USA 219) 17 Oct 04:54:08 04:56:53 15° 27° (NNE) 04:59:38 437.305
BEESAT 17 Oct 05:00:11 05:03:36 19° 271° (W) 05:07:02 436.000
ITAMSAT 1 17 Oct 05:09:25 05:14:40 67° 103° (ESE) 05:19:53 435.822/435.867
KKS-1 17 Oct 05:10:24 05:14:50 79° 70° (ENE) 05:19:19 437.445
AO-7 17 Oct 05:24:33 05:32:55 79° 110° (ESE) 05:41:15 .
STRAND 1 17 Oct 05:40:40 05:43:47 17° 48° (NE) 05:46:56 437.568
NO-84 17 Oct 05:42:46 05:46:17 25° 142° (SE) 05:49:40 435.350 FM
STARS 17 Oct 05:54:56 05:59:20 89° 262° (W) 06:03:48 437.465
DOVE 4 17 Oct 05:58:12 06:02:35 35° 95° (E) 06:07:10 437.250
XW-2C 17 Oct 06:13:33 06:14:53 12° 86° (E) 06:16:14 145.795 - 145.815
RS-15 17 Oct 06:24:36 06:36:42 54° 354° (N) 06:48:23 29.354- 29.394
CUBESAT XI-V 17 Oct 06:31:57 06:33:08 11° 278° (W) 06:34:20 437.345
O/OREOS (USA 219) 17 Oct 06:33:00 06:37:28 46° 50° (NE) 06:41:54 437.305
KKS-1 17 Oct 06:49:02 06:51:57 17° 272° (W) 06:54:54 437.445
ITAMSAT 1 17 Oct 06:49:24 06:53:48 28° 304° (NW) 06:58:11 435.822/435.867
CUTE-I 17 Oct 06:49:25 06:53:54 26° 91° (E) 06:58:20 437.470
LilacSat-2 17 Oct 06:57:07 07:00:32 31° 95° (E) 07:03:55 437.200
XW-2F 17 Oct 07:00:43 07:04:03 30° 95° (E) 07:07:21 145.980 - 146.000
KAITUO 1B 17 Oct 07:06:04 07:09:17 27° 95° (E) 07:12:29 145.475/437.950
CUTE 1.7 + AOD 2 17 Oct 07:07:11 07:08:44 12° 84° (E) 07:10:18 437.475
XW-2D 17 Oct 07:09:40 07:13:14 39° 98° (E) 07:16:46 145.860 - 145.880
FO-29 17 Oct 07:10:38 07:14:15 19° 46° (NE) 07:18:05 435.910
STRAND 1 17 Oct 07:17:02 07:22:07 66° 69° (ENE) 07:27:15 437.568
AO-7 17 Oct 07:17:45 07:25:10 38° 313° (NW) 07:32:35 .
NO-84 17 Oct 07:19:06 07:23:18 66° 161° (SSE) 07:27:16 435.350 FM
SEEDS 17 Oct 07:22:46 07:23:44 11° 83° (E) 07:24:42 437.485
XW-2B 17 Oct 07:22:55 07:26:36 52° 100° (E) 07:30:16 145.730 - 145.750
CUBEBUG 2 17 Oct 07:25:09 07:27:20 13° 83° (E) 07:29:29 437.445
NUDT-PHONESAT 17 Oct 07:26:55 07:30:28 42° 99° (E) 07:33:57 437.300
STARS 17 Oct 07:33:53 07:36:21 15° 273° (W) 07:38:50 437.465
HO-68 17 Oct 07:35:34 07:41:46 30° 91° (E) 07:47:55 435.675
DOVE 4 17 Oct 07:35:52 07:40:22 44° 294° (WNW) 07:45:07 437.250
XW-2C 17 Oct 07:45:54 07:49:41 90° 351° (N) 07:53:26 145.795 - 145.815
AAUSAT CUBESAT 2 17 Oct 07:58:35 08:00:00 11° 84° (E) 08:01:26 437.432
SO-50 17 Oct 08:03:16 08:06:16 18° 115° (ESE) 08:09:18 436.795
UNISAT 6 17 Oct 08:08:17 08:10:39 14° 49° (NE) 08:13:02 437.425
UWE-3 17 Oct 08:10:57 08:14:17 19° 88° (E) 08:17:33 435.000/436.395/437.385
O/OREOS (USA 219) 17 Oct 08:12:37 08:16:48 34° 251° (WSW) 08:20:57 437.305
YUBILEINY 17 Oct 08:23:24 08:27:59 16° 66° (ENE) 08:32:34 435.215
TIGRISAT 17 Oct 08:23:32 08:26:27 17° 52° (NE) 08:29:22 435.000
CUTE-I 17 Oct 08:29:03 08:34:24 66° 292° (WNW) 08:39:44 437.470
XW-2A 17 Oct 08:29:52 08:32:40 24° 94° (E) 08:35:26 145.665 - 145.685
LilacSat-2 17 Oct 08:31:25 08:34:49 32° 295° (WNW) 08:38:11 437.200
XW-2F 17 Oct 08:34:49 08:38:11 32° 295° (WNW) 08:41:32 145.980 - 146.000
RS-15 17 Oct 08:39:13 08:51:26 65° 26° (NNE) 09:03:03 29.354- 29.394
KAITUO 1B 17 Oct 08:39:57 08:43:20 34° 294° (WNW) 08:46:42 145.475/437.950
CUTE 1.7 + AOD 2 17 Oct 08:41:05 08:45:19 78° 104° (ESE) 08:49:31 437.475
Oscar 11 17 Oct 08:42:22 08:44:34 14° 85° (E) 08:46:47 .
XW-2D 17 Oct 08:44:08 08:47:16 26° 298° (WNW) 08:50:25 145.860 - 145.880
PRISM 17 Oct 08:51:08 08:53:08 14° 52° (NE) 08:55:09 437.425
FO-29 17 Oct 08:53:12 08:58:25 74° 70° (ENE) 09:04:08 435.910
SEEDS 17 Oct 08:56:02 09:00:13 72° 103° (ESE) 09:04:22 437.485
NO-84 17 Oct 08:56:35 09:00:43 89° 3° (N) 09:04:34 435.350 FM
STRAND 1 17 Oct 08:57:35 09:01:46 25° 269° (W) 09:05:59 437.568
XW-2B 17 Oct 08:57:40 09:00:31 21° 300° (WNW) 09:03:21 145.730 - 145.750
PCSat 17 Oct 08:58:49 09:02:05 16° 106° (ESE) 09:05:21 145.827
CUBEBUG 2 17 Oct 09:00:03 09:04:49 74° 104° (ESE) 09:09:27 437.445
NUDT-PHONESAT 17 Oct 09:01:09 09:04:09 23° 298° (WNW) 09:07:06 437.300
AO-7 17 Oct 09:10:43 09:15:49 18° 339° (NNW) 09:20:56 .
AO-73 17 Oct 09:13:44 09:17:49 34° 95° (E) 09:21:47 145.935
DOVE 4 17 Oct 09:16:07 09:17:03 11° 314° (NW) 09:17:59 437.250
XW-2C 17 Oct 09:21:21 09:23:18 14° 305° (NW) 09:25:16 145.795 - 145.815
HO-68 17 Oct 09:22:59 09:30:14 79° 293° (WNW) 09:37:26 435.675
AAUSAT CUBESAT 2 17 Oct 09:32:02 09:36:11 79° 102° (ESE) 09:40:19 437.432
ZACube-1 17 Oct 09:33:10 09:37:36 55° 100° (E) 09:41:53 437.345
SO-50 17 Oct 09:41:38 09:46:07 83° 137° (SE) 09:50:41 436.795
UNISAT 6 17 Oct 09:41:53 09:46:29 62° 70° (ENE) 09:51:09 437.425
UWE-3 17 Oct 09:46:38 09:51:16 72° 289° (WNW) 09:55:45 435.000/436.395/437.385
TIGRISAT 17 Oct 09:57:45 10:02:24 77° 72° (ENE) 10:07:08 435.000
DELFI C3 17 Oct 10:02:03 10:04:53 19° 90° (E) 10:07:43 145.870
XW-2A 17 Oct 10:02:22 10:05:28 33° 293° (WNW) 10:08:30 145.665 - 145.685
CUTE-I 17 Oct 10:10:12 10:13:35 17° 313° (NW) 10:16:58 437.470
EO-88 17 Oct 10:10:59 10:12:31 12° 87° (E) 10:14:03 145.990 - 145.960
Max Valier Satellite 17 Oct 10:11:07 10:13:31 16° 89° (E) 10:15:54 145.860
AIST 2D 17 Oct 10:14:20 10:16:38 17° 59° (ENE) 10:18:57 435.315
YUBILEINY 17 Oct 10:14:23 10:22:47 57° 91° (E) 10:31:15 435.215
Oscar 11 17 Oct 10:17:03 10:21:25 87° 109° (ESE) 10:25:43 .
QB50P2 17 Oct 10:17:08 10:19:17 14° 51° (NE) 10:21:26 145.880/145.840
CUTE 1.7 + AOD 2 17 Oct 10:17:48 10:20:40 18° 304° (NW) 10:23:33 437.475
PRISM 17 Oct 10:23:42 10:27:44 74° 72° (ENE) 10:31:49 437.425
NANOSAT C BR1 17 Oct 10:24:34 10:26:36 13° 51° (NE) 10:28:38 145.865
SEEDS 17 Oct 10:32:31 10:35:28 19° 303° (WNW) 10:38:25 437.485
NO-84 17 Oct 10:34:09 10:38:04 56° 203° (SSW) 10:41:39 435.350 FM
DUCHIFAT 1 17 Oct 10:37:04 10:39:28 15° 52° (NE) 10:41:53 145.980
CUBEBUG 2 17 Oct 10:37:20 10:40:58 22° 304° (WNW) 10:44:32 437.445
PCSat 17 Oct 10:39:12 10:44:36 71° 127° (SE) 10:50:02 145.827
FO-29 17 Oct 10:40:15 10:44:19 22° 273° (W) 10:48:37 435.910
AO-73 17 Oct 10:49:58 10:54:06 38° 295° (WNW) 10:58:09 145.935
RS-15 17 Oct 10:52:24 11:04:18 67° 236° (SW) 11:15:34 29.354- 29.394
AO-7 17 Oct 11:01:26 11:05:34 15° 7° (N) 11:09:42 .
AAUSAT CUBESAT 2 17 Oct 11:08:25 11:11:10 18° 304° (NW) 11:13:55 437.432
ZACube-1 17 Oct 11:09:54 11:13:37 26° 301° (WNW) 11:17:15 437.345
HO-68 17 Oct 11:11:21 11:17:04 26° 316° (NW) 11:22:47 435.675
Oscar 19 17 Oct 11:17:08 11:18:43 11° 41° (NE) 11:20:18 437.125/150
UNISAT 6 17 Oct 11:19:51 11:23:35 23° 270° (W) 11:27:23 437.425
SO-50 17 Oct 11:22:55 11:27:01 34° 338° (NNW) 11:31:11 436.795
UWE-3 17 Oct 11:24:18 11:26:57 15° 309° (NW) 11:29:33 435.000/436.395/437.385
EO-79 17 Oct 11:26:46 11:30:46 40° 65° (ENE) 11:34:49 145.935-145.965
POLYITAN 1 17 Oct 11:30:19 11:34:23 43° 66° (ENE) 11:38:29 437.675
DELFI C3 17 Oct 11:36:05 11:39:59 59° 289° (WNW) 11:43:53 145.870
TIGRISAT 17 Oct 11:36:21 11:39:39 19° 272° (W) 11:43:01 435.000
Tancredo 1 17 Oct 11:40:22 11:41:34 14° 158° (SSE) 11:42:46 437.200
EO-88 17 Oct 11:43:02 11:46:42 81° 286° (WNW) 11:50:20 145.990 - 145.960
ESTCUBE 1 17 Oct 11:43:54 11:46:49 17° 88° (E) 11:49:41 437.505/2401.250
Max Valier Satellite 17 Oct 11:44:04 11:47:44 60° 289° (WNW) 11:51:22 145.860
AIST 2D 17 Oct 11:45:58 11:49:28 60° 259° (WSW) 11:52:57 435.315
QB50P2 17 Oct 11:50:04 11:54:20 69° 71° (ENE) 11:58:37 145.880/145.840
Oscar 11 17 Oct 11:54:11 11:57:00 17° 305° (NW) 11:59:48 .
NANOSAT C BR1 17 Oct 11:57:19 12:01:33 67° 71° (ENE) 12:05:49 145.865
PRISM 17 Oct 12:01:00 12:03:31 16° 271° (W) 12:06:03 437.425
DUCHIFAT 1 17 Oct 12:10:14 12:14:28 78° 74° (ENE) 12:18:46 145.980
YUBILEINY 17 Oct 12:11:35 12:19:54 47° 295° (WNW) 12:28:18 435.215
NO-84 17 Oct 12:12:16 12:14:47 17° 224° (SW) 12:17:11 435.350 FM
M-CUBED/EXP-1 PRIME 17 Oct 12:21:46 12:24:34 25° 56° (ENE) 12:27:20 437.505
PCSat 17 Oct 12:23:21 12:28:25 38° 330° (NNW) 12:33:30 145.827
ISS 17 Oct 12:25:48 12:27:17 13° 144° (SE) 12:28:46 437.550
BUGSAT 1 17 Oct 12:33:16 12:37:15 43° 66° (ENE) 12:41:18 437.445
LO-87 17 Oct 12:44:49 12:48:29 77° 104° (ESE) 12:52:07 145.935 - 145.965
AO-7 17 Oct 12:49:22 12:55:37 25° 33° (NNE) 13:01:52 .
Oscar 19 17 Oct 12:52:00 12:56:51 42° 63° (ENE) 13:01:41 437.125/150
Gurwin Techsat 1B 17 Oct 12:53:40 12:58:24 34° 59° (ENE) 13:03:10 435.225
HO-68 17 Oct 13:00:17 13:02:30 12° 341° (NNW) 13:04:43 435.675
BEESAT 3 17 Oct 13:01:14 13:02:12 11° 111° (ESE) 13:03:10 437.485
EO-79 17 Oct 13:02:50 13:06:38 31° 265° (W) 13:10:29 145.935-145.965
SO-50 17 Oct 13:04:51 13:08:37 25° 2° (N) 13:12:26 436.795
RS-15 17 Oct 13:06:01 13:14:21 23° 262° (W) 13:22:27 29.354- 29.394
POLYITAN 1 17 Oct 13:06:34 13:10:18 29° 266° (W) 13:14:05 437.675
SPROUT 17 Oct 13:09:57 13:13:43 28° 94° (E) 13:17:26 437.525
Tancredo 1 17 Oct 13:11:29 13:13:14 28° 177° (S) 13:14:59 437.200
DELFI C3 17 Oct 13:13:01 13:13:57 11° 309° (NW) 13:14:54 145.870
EO-88 17 Oct 13:18:14 13:19:45 12° 306° (NW) 13:21:15 145.990 - 145.960
ESTCUBE 1 17 Oct 13:19:42 13:24:13 81° 285° (WNW) 13:28:41 437.505/2401.250
ITAMSAT 1 17 Oct 13:20:47 13:22:22 11° 40° (NE) 13:23:57 435.822/435.867
VELOX 1 17 Oct 13:25:58 13:29:50 29° 94° (E) 13:33:41 145.980
QB50P2 17 Oct 13:27:34 13:30:35 18° 271° (W) 13:33:37 145.880/145.840
NANOSAT C BR1 17 Oct 13:34:40 13:37:42 19° 271° (W) 13:40:46 145.865
nSIGHT-1 17 Oct 13:36:51 13:39:40 29° 160° (SSE) 13:42:29 .
DUCHIFAT 1 17 Oct 13:48:00 13:50:42 16° 272° (W) 13:53:24 145.980
M-CUBED/EXP-1 PRIME 17 Oct 13:55:52 13:58:58 34° 255° (WSW) 14:02:00 437.505
ISS 17 Oct 14:00:06 14:03:05 33° 163° (SSE) 14:06:05 437.550
PCSat 17 Oct 14:08:53 14:13:14 23° 355° (N) 14:17:35 145.827
BUGSAT 1 17 Oct 14:09:07 14:12:46 28° 266° (W) 14:16:27 437.445
BEESAT 2 17 Oct 14:11:08 14:13:42 17° 115° (ESE) 14:16:17 435.950
YUBILEINY 17 Oct 14:14:11 14:19:32 17° 324° (NW) 14:24:54 435.215
LO-87 17 Oct 14:19:17 14:21:25 15° 303° (WNW) 14:23:34 145.935 - 145.965
50 SAT 17 Oct 14:21:15 14:24:10 28° 96° (E) 14:27:05 437.505
Oscar 19 17 Oct 14:31:23 14:36:14 40° 263° (W) 14:41:06 437.125/150
Gurwin Techsat 1B 17 Oct 14:33:01 14:38:12 53° 260° (W) 14:43:26 435.225
BEESAT 3 17 Oct 14:34:59 14:38:56 59° 131° (SE) 14:42:56 437.485
AO-7 17 Oct 14:38:52 14:46:59 61° 58° (ENE) 14:55:06 .
Tancredo 1 17 Oct 14:43:25 14:44:55 19° 196° (SSW) 14:46:24 437.200
DX 1 17 Oct 14:43:55 14:48:06 42° 99° (E) 14:52:16 434.975-435.025
SPROUT 17 Oct 14:45:39 14:49:46 44° 294° (WNW) 14:53:51 437.525
SO-50 17 Oct 14:45:50 14:50:07 39° 26° (NNE) 14:54:28 436.795
ITAMSAT 1 17 Oct 14:55:45 15:00:35 41° 62° (ENE) 15:05:28 435.822/435.867
ESTCUBE 1 17 Oct 14:57:36 15:00:22 16° 308° (NW) 15:03:07 437.505/2401.250
VELOX 1 17 Oct 15:02:13 15:06:27 46° 294° (WNW) 15:10:41 145.980
MOZHAYETS 4 17 Oct 15:03:52 15:04:11 10° 81° (E) 15:04:28
AO-85 17 Oct 15:04:54 15:08:23 31° 123° (ESE) 15:11:59 145.980
nSIGHT-1 17 Oct 15:12:29 15:15:35 45° 180° (S) 15:18:41 .
BEESAT 17 Oct 15:15:07 15:16:57 12° 83° (E) 15:18:47 436.000
UKube-1 17 Oct 15:15:41 15:19:57 55° 102° (ESE) 15:24:13 .
DOVE 4 17 Oct 15:36:03 15:38:06 13° 50° (NE) 15:40:13 437.250
ISS 17 Oct 15:36:05 15:39:14 45° 183° (S) 15:42:24 437.550
BEESAT 2 17 Oct 15:46:49 15:50:52 86° 140° (SE) 15:54:58 435.950
PCSat 17 Oct 15:53:29 15:58:14 29° 21° (NNE) 16:02:57 145.827
50 SAT 17 Oct 15:53:36 15:56:29 27° 295° (WNW) 15:59:21 437.505
BEESAT 3 17 Oct 16:12:58 16:16:43 35° 332° (NNW) 16:20:28 437.485
DX 1 17 Oct 16:20:20 16:24:12 31° 299° (WNW) 16:28:03 434.975-435.025
SO-50 17 Oct 16:26:20 16:30:52 65° 228° (SW) 16:35:28 436.795
HO-68 17 Oct 16:27:44 16:32:09 18° 34° (NNE) 16:36:34 435.675
AO-7 17 Oct 16:32:12 16:40:04 46° 261° (W) 16:48:01 .
ITUPSAT 1 17 Oct 16:32:54 16:37:35 48° 100° (E) 16:42:13 437.325
ITAMSAT 1 17 Oct 16:35:10 16:40:05 42° 262° (W) 16:45:03 435.822/435.867
MOZHAYETS 4 17 Oct 16:37:45 16:42:20 61° 102° (ESE) 16:46:52
XW-2B 17 Oct 16:39:16 16:40:43 12° 53° (NE) 16:42:09 145.730 - 145.750
CUBESAT XI-V 17 Oct 16:39:54 16:43:18 20° 89° (E) 16:46:40 437.345
CUTE-I 17 Oct 16:40:29 16:44:12 20° 50° (NE) 16:47:57 437.470
VELOX 1 17 Oct 16:41:20 16:41:54 10° 315° (NW) 16:42:29 145.980
AO-85 17 Oct 16:44:44 16:48:36 52° 325° (NW) 16:52:41 145.980
nSIGHT-1 17 Oct 16:48:39 16:51:31 30° 199° (SSW) 16:54:22 .
BEESAT 17 Oct 16:50:52 16:55:40 68° 104° (ESE) 17:00:25 436.000
UKube-1 17 Oct 16:52:11 16:55:43 25° 302° (WNW) 16:59:14 .
XW-2C 17 Oct 17:00:54 17:03:30 18° 58° (ENE) 17:06:07 145.795 - 145.815
DOVE 4 17 Oct 17:10:49 17:15:00 69° 71° (ENE) 17:19:23 437.250
ISS 17 Oct 17:12:31 17:15:19 26° 203° (SSW) 17:18:08 437.550
BEESAT 2 17 Oct 17:25:27 17:29:03 29° 337° (NNW) 17:32:40 435.950
PCSat 17 Oct 17:37:03 17:42:30 71° 44° (NE) 17:47:56 145.827
STARS 17 Oct 17:39:29 17:40:21 10° 83° (E) 17:41:13 437.465
LilacSat-2 17 Oct 17:45:21 17:48:59 44° 68° (ENE) 17:52:39 437.200
XW-2F 17 Oct 17:47:50 17:51:25 41° 68° (ENE) 17:55:00 145.980 - 146.000
BEESAT 3 17 Oct 17:52:09 17:55:15 21° 355° (N) 17:58:20 437.485
KAITUO 1B 17 Oct 17:52:20 17:55:48 37° 67° (ENE) 17:59:16 145.475/437.950
XW-2D 17 Oct 17:57:10 18:00:55 55° 70° (ENE) 18:04:38 145.860 - 145.880
CUTE 1.7 + AOD 2 17 Oct 18:05:45 18:09:00 22° 59° (ENE) 18:12:16 437.475
SO-50 17 Oct 18:08:14 18:10:33 14° 248° (WSW) 18:12:52 436.795
XW-2B 17 Oct 18:10:26 18:14:14 72° 73° (ENE) 18:18:02 145.730 - 145.750
ITUPSAT 1 17 Oct 18:11:00 18:15:17 32° 300° (WNW) 18:19:32 437.325
HO-68 17 Oct 18:11:33 18:18:20 47° 57° (ENE) 18:25:09 435.675
NUDT-PHONESAT 17 Oct 18:12:15 18:15:54 56° 71° (ENE) 18:19:34 437.300
MOZHAYETS 4 17 Oct 18:15:26 18:19:11 25° 302° (WNW) 18:22:54
CUBESAT XI-V 17 Oct 18:16:34 18:21:10 70° 289° (WNW) 18:25:44 437.345
CUTE-I 17 Oct 18:18:13 18:23:32 79° 70° (ENE) 18:28:54 437.470
YUBILEINY 17 Oct 18:18:30 18:23:35 16° 34° (NNE) 18:28:41 435.215
SEEDS 17 Oct 18:20:01 18:23:04 20° 58° (ENE) 18:26:07 437.485
AO-85 17 Oct 18:26:29 18:29:50 24° 349° (N) 18:33:19 145.980
nSIGHT-1 17 Oct 18:26:36 18:27:04 10° 218° (SW) 18:27:31 .
CUBEBUG 2 17 Oct 18:29:04 18:32:55 26° 59° (ENE) 18:36:50 437.445
BEESAT 17 Oct 18:29:13 18:33:04 25° 304° (NW) 18:36:55 436.000
KKS-1 17 Oct 18:30:25 18:34:52 57° 102° (ESE) 18:39:18 437.445
AO-7 17 Oct 18:33:10 18:35:16 11° 285° (WNW) 18:37:23 .
XW-2C 17 Oct 18:33:30 18:37:18 66° 258° (WSW) 18:41:07 145.795 - 145.815
AO-73 17 Oct 18:42:12 18:44:26 14° 50° (NE) 18:46:39 145.935
DOVE 4 17 Oct 18:50:21 18:53:15 18° 273° (W) 18:56:15 437.250
AAUSAT CUBESAT 2 17 Oct 18:54:35 18:57:37 20° 58° (ENE) 19:00:41 437.432
ZACube-1 17 Oct 19:00:46 19:04:02 20° 55° (NE) 19:07:17 437.345
BEESAT 2 17 Oct 19:04:45 19:07:52 21° 1° (N) 19:11:00 435.950
XW-2A 17 Oct 19:07:24 19:10:21 27° 64° (ENE) 19:13:18 145.665 - 145.685
STARS 17 Oct 19:13:09 19:17:35 65° 103° (ESE) 19:22:01 437.465
UWE-3 17 Oct 19:14:00 19:18:16 36° 63° (ENE) 19:22:33 435.000/436.395/437.385
LilacSat-2 17 Oct 19:20:21 19:23:27 23° 267° (W) 19:26:34 437.200
PCSat 17 Oct 19:20:53 19:25:33 30° 246° (WSW) 19:30:11 145.827
STRAND 1 17 Oct 19:21:40 19:24:11 14° 83° (E) 19:26:43 437.568
XW-2F 17 Oct 19:22:34 19:25:41 24° 267° (W) 19:28:49 145.980 - 146.000
KAITUO 1B 17 Oct 19:26:42 19:29:53 26° 266° (W) 19:33:05 145.475/437.950
BEESAT 3 17 Oct 19:30:30 19:33:56 26° 19° (NNE) 19:37:19 437.485
XW-2D 17 Oct 19:32:40 19:35:24 19° 270° (W) 19:38:08 145.860 - 145.880
CUTE 1.7 + AOD 2 17 Oct 19:40:19 19:44:30 61° 258° (WSW) 19:48:43 437.475
Oscar 11 17 Oct 19:43:16 19:46:52 26° 60° (ENE) 19:50:29 .
XW-2B 17 Oct 19:46:41 19:48:52 15° 272° (W) 19:51:05 145.730 - 145.750
NUDT-PHONESAT 17 Oct 19:47:30 19:50:06 18° 270° (W) 19:52:41 437.300
SEEDS 17 Oct 19:54:11 19:58:21 68° 257° (WSW) 20:02:33 437.485
CUBESAT XI-V 17 Oct 19:55:14 19:57:47 15° 309° (NW) 20:00:20 437.345
HO-68 17 Oct 19:59:04 20:06:03 53° 259° (W) 20:13:07 435.675
CUTE-I 17 Oct 20:00:10 20:04:13 22° 271° (W) 20:08:17 437.470
CUBEBUG 2 17 Oct 20:04:33 20:09:12 62° 259° (W) 20:13:57 437.445
KKS-1 17 Oct 20:07:27 20:11:09 26° 302° (WNW) 20:14:50 437.445
AO-85 17 Oct 20:07:54 20:11:25 25° 14° (NNE) 20:15:07 145.980
YUBILEINY 17 Oct 20:15:04 20:23:23 44° 63° (ENE) 20:31:42 435.215
AO-73 17 Oct 20:15:19 20:19:50 62° 70° (ENE) 20:24:22 145.935
AAUSAT CUBESAT 2 17 Oct 20:28:38 20:32:43 64° 258° (WSW) 20:36:49 437.432
ZACube-1 17 Oct 20:35:10 20:39:47 84° 255° (WSW) 20:44:24 437.345
XW-2A 17 Oct 20:39:55 20:43:01 31° 264° (W) 20:46:06 145.665 - 145.685
BEESAT 2 17 Oct 20:43:00 20:46:40 31° 24° (NNE) 20:50:19 435.950
STARS 17 Oct 20:50:05 20:53:34 23° 303° (WNW) 20:57:04 437.465
UWE-3 17 Oct 20:50:17 20:54:40 40° 264° (W) 20:59:07 435.000/436.395/437.385
DELFI C3 17 Oct 20:53:43 20:57:05 28° 63° (ENE) 21:00:28 145.870
EO-88 17 Oct 20:54:54 20:57:22 17° 58° (ENE) 20:59:49 145.990 - 145.960
O/OREOS (USA 219) 17 Oct 20:55:38 20:57:15 12° 97° (E) 20:58:51 437.305
Max Valier Satellite 17 Oct 20:56:19 20:59:17 22° 61° (ENE) 21:02:14 145.860
STRAND 1 17 Oct 20:59:09 21:04:21 70° 103° (ESE) 21:09:30 437.568
BEESAT 3 17 Oct 21:08:02 21:12:04 74° 41° (NE) 21:16:01 437.485
Oscar 11 17 Oct 21:18:33 21:22:48 52° 260° (W) 21:27:03 .
SEEDS 17 Oct 21:34:30 21:34:52 10° 277° (W) 21:35:15 437.485
FO-29 17 Oct 21:37:50 21:43:55 40° 95° (E) 21:50:39 435.910
TIGRISAT 17 Oct 21:44:21 21:45:38 11° 81° (E) 21:46:54 435.000
CUBEBUG 2 17 Oct 21:45:31 21:46:48 11° 279° (W) 21:48:05 437.445
AO-85 17 Oct 21:48:19 21:52:34 57° 36° (NE) 21:57:10 145.980
HO-68 17 Oct 21:52:36 21:55:35 13° 282° (WNW) 21:58:35 435.675
AO-73 17 Oct 21:52:51 21:56:26 22° 270° (W) 22:00:03 145.935
LO-87 17 Oct 21:55:59 21:57:49 13° 55° (NE) 21:59:39 145.935 - 145.965
YUBILEINY 17 Oct 22:12:04 22:20:40 62° 268° (W) 22:29:17 435.215
ZACube-1 17 Oct 22:14:15 22:16:47 14° 275° (W) 22:19:18 437.345
BEESAT 2 17 Oct 22:20:42 22:24:47 77° 225° (SW) 22:28:49 435.950
EO-88 17 Oct 22:27:00 22:30:38 64° 258° (WSW) 22:34:17 145.990 - 145.960
DELFI C3 17 Oct 22:28:04 22:31:44 38° 262° (W) 22:35:26 145.870
Max Valier Satellite 17 Oct 22:29:15 22:32:53 47° 261° (W) 22:36:31 145.860
O/OREOS (USA 219) 17 Oct 22:31:14 22:35:46 68° 117° (ESE) 22:40:22 437.305
SPROUT 17 Oct 22:37:35 22:38:45 11° 48° (NE) 22:39:55 437.525
